User: anonymous   Login
Location: Caltech
(34.1382°N, 118.1253°W)
Time: 16:15:58
(UTC-08:00)
Language:

GPS 2-04 Rocket1 - Orbit

View from above orbital plane
View from above orbital plane
View from above satellite
View from above satellite

Ground track
Ground track

The orbit data is extracted from the following two-line orbital elements,

1 20303U 89085B   18020.66812039 +.00001948 +00000-0 +68108-4 0  9993
2 20303 035.6301 120.1910 0104456 295.5415 063.4542 15.24603904534283
Epoch (UTC): 20 January 2018 16:02:05
Eccentricity: 0.0104456
inclination: 35.6301°
perigee height: 420 km
apogee height: 564 km
right ascension of ascending node: 120.1910°
argument of perigee: 295.5415°
revolutions per day: 15.24603904
mean anomaly at epoch: 63.4542°
orbit number at epoch: 53428

The dashed part of the orbit path shows where the satellite is in the earth's shadow,  

DLR